sat.trackr.live / text

‹ back to catalog

STARLINK-34896

NORAD 66288 · 2025-247Z

PAYLOAD ACTIVE UNKNOWN

§ Identity

Operator
Country
US
Launch date
2025-10-31
Launch site
AFWTR
Launch vehicle
Mass (kg)
RCS (m²)

Purposes: comms

External: N2YO · Heavens-Above · Gunter

§ Orbital elements

Epoch: 2026-05-25T03:29:42.255744Z

Period
93.85 min
Inclination
53.1587°
Eccentricity
0.0001285
Mean motion
15.34402647 rev/d
Perigee alt
461.8 km
Apogee alt
463.6 km
Semi-major
6,840.8 km
B*
6.1295e-4
RAAN
195.3000°
Arg perigee
79.3333°
Mean anomaly
280.7814°
Rev number
3,275

§ Raw data

STARLINK-348961 66288U 25247Z   26145.14562796  .00020391  00000+0  61295-3 0  99982 66288  53.1587 195.3000 0001285  79.3333 280.7814 15.34402647 32756

JSON: /api/v1/satellites/66288 · /tle

For live sub-satellite position, see the globe view (requires WebGL).

§ Visibility from observer

Set your observer location to see the next 7 days of passes ≥ 10°. The values pass through the URL so the page stays shareable.

No JS? Fill the form by hand. The geolocation button needs JavaScript.